Regional Weather Roundup
Issued by NWS

Home | Current Version | Previous Version | Graphics & Text | Print | Product List | Glossary On
Versions: 1 2 3 4 5 6 7 8 9 10 11 12 13 14 15 16 17 18 19 20 21 22 23 24 25 26 27 28 29 30 31 32 33 34 35 36 37 38 39 40 41 42 43 44 45 46 47 48 49 50
000
ASUS43 KBIS 221910
RWRND

NORTH DAKOTA REGIONAL WEATHER ROUNDUP
NATIONAL WEATHER SERVICE BISMARCK ND
200 PM CDT WED OCT 22 2014

NOTE: "FAIR" INDICATES FEW OR NO CLOUDS BELOW 12,000 FEET WITH NO
SIGNIFICANT WEATHER AND/OR OBSTRUCTIONS TO VISIBILITY.


NDZ001>003-009>011-017-222000-
NORTHWEST NORTH DAKOTA

CITY           SKY/WX    TMP DP  RH WIND       PRES   REMARKS
WILLISTON      CLOUDY    58  41  53 W21G28    29.81R
MINOT          CLOUDY    61  42  49 SW18G26   29.76S
MINOT AFB      PTSUNNY   60  44  55 W23G29    29.75S
$$

NDZ018>021-031>035-040>046-222000-
SOUTHWEST NORTH DAKOTA

CITY           SKY/WX    TMP DP  RH WIND       PRES   REMARKS
BISMARCK       CLOUDY    63  43  48 W15       29.85F
DICKINSON      SUNNY     62  36  37 W22G30    29.85F
GARRISON         N/A     62  42  47 W15G22    29.79F
HETTINGER ARPT SUNNY     62  34  35 W21G28    29.92F
$$

NDZ004>008-012>016-024-026-027-054-222000-
NORTHEAST NORTH DAKOTA

CITY           SKY/WX    TMP DP  RH WIND       PRES   REMARKS
GRAND FORKS    CLOUDY    62  47  57 S17G31    29.80F
GRND FRKS AFB  CLOUDY    65  49  55 S20       29.79F
DEVILS LAKE    CLOUDY    57  45  62 W9        29.74R
$$

NDZ022-023-025-028>030-036>039-047>053-222000-
SOUTHEAST NORTH DAKOTA

CITY           SKY/WX    TMP DP  RH WIND       PRES   REMARKS
FARGO          CLOUDY    66  47  50 S20G26    29.85F
JAMESTOWN      LGT RAIN  57  49  74 W12       29.84F
$$




USA.gov is the U.S. government's official web portal to all federal, state and local government web resources and services.